Probability
2 1 0 0 0 0 0 0 0 0 0 0 0 0 0 0 0 0 0 0 1 2 1 1 3 2 1 2 4 5 5 4 2 0 0 0 0 0 0 0 1 2 3
2 1 0 0 0 0 0 0 0 0 0 0 0 0 0 0 0 0 0 0 1 1 1 2 3 3 1 1 3 5 6 4 2 1 0 0 0 0 0 0 0 1 2
3 2 1 0 0 0 0 0 0 0 0 0 0 0 0 0 0 0 0 0 0 0 0 1 2 3 2 1 3 5 5 4 3 1 0 0 0 0 0 0 0 1 2
3 3 2 1 0 0 0 0 0 0 0 0 0 0 0 0 0 0 0 0 0 0 0 0 1 2 2 1 3 4 4 3 3 1 0 0 0 0 0 0 0 0 1
3 3 3 1 0 0 0 0 0 0 0 0 0 0 0 0 0 0 0 0 0 0 0 0 0 1 1 1 3 3 3 3 2 1 0 0 0 0 0 0 0 0 0
1 2 3 2 0 0 0 0 0 0 0 0 0 0 0 0 0 0 0 0 0 0 0 0 0 0 0 2 3 3 3 3 1 1 0 0 0 0 0 0 0 0 0
0 1 2 1 0 0 0 0 0 0 0 0 0 0 0 0 0 0 0 0 0 0 0 0 0 0 0 1 2 3 3 2 1 0 0 0 0 0 0 0 0 0 0
0 0 0 0 0 0 0 0 0 0 0 0 0 0 0 0 0 0 0 0 0 0 0 0 0 0 0 0 1 1 2 3 2 1 0 0 0 0 0 0 0 0 1
0 0 0 0 0 0 0 0 0 0 0 0 0 0 0 0 0 0 0 0 0 0 0 0 0 0 0 0 0 0 1 3 4 3 1 0 0 0 0 0 0 1 1
0 0 0 0 0 0 0 0 0 0 0 0 0 0 0 0 0 0 0 0 0 0 0 0 0 0 0 0 0 0 1 2 4 4 2 1 0 0 0 1 2 2 1
0 0 0 0 0 0 0 0 0 0 0 0 0 0 0 0 0 0 0 0 0 0 0 0 0 0 0 0 0 0 0 1 3 4 3 2 1 0 0 2 4 4 3
0 0 0 0 0 0 0 0 0 0 0 0 0 0 0 0 0 0 0 0 0 0 0 0 0 0 0 0 0 0 0 1 2 3 3 3 2 0 0 1 3 5 6
0 0 0 0 0 0 0 0 0 0 0 0 0 0 0 0 0 0 0 0 0 0 0 0 0 0 0 0 0 0 0 0 1 2 2 2 1 0 0 0 1 3 5
0 0 0 0 0 0 0 0 0 0 0 0 0 0 0 0 0 0 0 0 0 0 0 0 0 0 0 0 0 0 0 0 0 0 0 0 0 0 0 0 0 1 3
0 0 0 0 0 0 0 0 0 0 0 0 0 0 0 0 0 0 0 0 0 0 0 0 0 0 0 0 0 0 0 0 0 0 0 0 0 0 0 0 0 0 1
0 0 0 0 0 0 0 0 0 0 0 0 0 0 0 0 0 0 0 0 0 0 0 0 0 0 0 0 0 0 0 0 0 0 0 0 0 0 0 0 0 0 0
0 0 0 0 0 0 0 0 0 0 0 0 0 0 0 0 0 0 0 0 0 0 0 0 0 0 0 0 0 0 0 0 0 0 0 0 0 0 0 0 0 0 0
0 0 0 0 0 0 0 0 0 0 0 0 0 0 0 0 0 0 0 0 0 0 0 0 0 0 0 0 0 0 0 0 0 0 0 0 0 0 0 0 0 0 0
0 0 0 0 0 0 0 0 0 0 0 0 0 0 0 0 0 0 0 0 0 0 0 0 0 0 0 0 0 0 0 0 0 0 0 0 0 0 0 0 0 0 0
0 0 0 0 0 0 0 0 0 0 0 0 0 0 0 0 0 0 0 0 0 0 0 0 0 0 0 0 0 0 0 0 0 0 0 0 0 0 0 0 0 0 0
0 0 0 0 0 0 0 0 0 0 0 0 0 0 0 0 0 0 0 0 0 0 0 0 0 0 0 0 0 0 0 0 0 0 0 0 0 0 0 0 0 0 0
0 0 0 0 0 0 0 0 0 0 0 0 0 0 0 0 0 0 0 0 0 0 0 0 0 0 0 0 0 0 0 0 0 0 0 0 0 0 0 0 0 0 0
0 0 0 0 0 0 0 0 0 0 0 0 0 0 0 0 0 0 0 0 0 0 0 0 0 0 0 0 0 0 0 0 0 0 0 0 0 0 0 0 0 0 0
0 0 0 0 0 0 0 0 0 0 0 0 0 0 0 0 0 0 0 0 0 0 0 0 0 0 0 0 0 0 0 0 0 0 0 0 0 0 0 0 0 0 0
0 0 0 0 0 0 0 0 0 0 0 0 0 0 0 0 0 0 0 0 0 0 0 0 0 0 0 0 0 0 0 0 0 0 0 0 0 0 0 0 0 0 0
0 0 0 0 0 0 0 0 0 0 0 0 0 0 0 0 0 0 0 0 0 0 0 0 0 0 0 0 0 0 0 0 0 0 0 0 0 0 0 0 0 0 0
Wind_Speed
2 2 2 2 3 2 2 2 3 3 3 3 3 3 2 2 2 2 2 3 2 1 0 2 2 3 4 5 6 6 6 7 8 8 8 7 7 7 7 7 7 8 8
2 2 2 2 2 2 2 1 2 2 2 2 3 3 2 2 2 2 2 2 3 1 0 1 2 2 3 5 6 6 6 6 7 7 8 7 7 7 6 6 7 7 8
1 1 1 2 2 2 2 2 2 2 2 2 2 3 2 2 2 2 1 1 2 2 0 1 2 2 3 4 5 6 6 6 6 6 7 7 6 6 6 6 6 7 7
2 1 1 1 2 1 1 1 2 2 2 2 2 2 2 2 2 2 1 1 1 1 1 1 0 2 3 4 4 5 5 5 6 6 6 7 6 6 6 6 6 7 7
2 1 1 1 1 1 1 2 2 1 2 2 2 2 2 2 2 1 1 1 1 1 1 1 1 0 2 3 3 4 4 5 5 5 5 6 6 6 6 6 6 7 7
2 1 1 1 1 1 1 2 2 1 1 1 2 2 2 2 1 1 1 1 1 1 2 2 1 1 1 2 2 3 4 4 5 5 6 5 6 7 7 7 7 7 7
4 2 1 1 1 1 1 1 2 2 1 1 1 2 2 2 1 1 0 0 1 1 1 2 1 1 1 1 1 1 3 4 5 5 6 6 6 7 7 8 8 8 7
4 3 2 1 1 1 1 1 1 1 1 0 0 1 2 2 2 2 1 0 0 1 1 1 1 1 1 1 0 1 1 3 4 5 5 6 6 7 8 8 8 8 8
5 4 3 2 2 1 2 2 1 1 1 1 1 1 1 2 3 2 2 1 1 1 1 1 0 0 1 0 0 1 2 2 3 4 5 5 6 7 8 9 9 9 9
5 5 4 3 2 2 2 2 2 2 2 2 2 1 1 1 2 2 2 2 2 2 2 1 1 1 1 0 0 1 2 2 3 4 4 4 6 7 7 9 9 9 8
5 5 4 3 3 2 3 3 3 3 2 2 2 2 1 1 2 2 3 3 3 2 2 2 1 2 1 1 1 1 2 3 4 4 5 4 4 5 6 7 9 8 8
4 5 5 4 4 3 3 3 3 4 3 3 3 2 2 2 2 2 3 3 4 3 2 2 2 2 2 2 2 2 2 3 4 4 5 5 5 5 4 5 7 8 8
4 6 5 4 4 4 4 3 4 4 4 5 4 4 3 4 3 3 3 3 4 3 2 2 2 2 2 2 2 2 3 3 4 5 5 6 5 5 4 4 5 7 7
5 6 6 5 5 5 5 4 4 4 4 5 5 5 4 4 4 3 3 3 3 3 3 3 2 3 2 2 3 3 3 4 5 5 5 4 3 3 4 4 4 4 6
5 6 6 6 6 5 5 4 4 5 5 5 5 5 5 4 4 4 4 4 4 4 5 3 2 3 2 2 3 3 3 5 5 5 4 3 3 3 3 3 1 2 4
6 6 6 6 6 6 5 4 4 5 5 5 4 5 5 4 4 3 4 4 4 4 5 3 3 2 3 3 4 3 3 5 5 4 4 3 3 3 3 3 2 1 3
6 6 6 6 6 6 5 5 5 5 5 5 5 5 6 5 4 4 4 4 4 3 5 4 2 2 3 3 2 2 3 3 3 5 5 4 3 4 4 4 3 2 3
6 6 6 6 6 6 5 5 6 5 5 5 5 5 5 4 5 4 4 5 4 4 4 5 3 3 3 3 3 3 2 2 2 4 5 5 4 4 4 4 4 3 3
6 6 6 6 6 6 6 6 6 6 5 5 5 5 5 5 5 4 4 5 4 4 3 4 4 3 2 2 2 1 1 1 2 3 5 5 5 5 5 5 5 4 3
6 6 6 6 7 7 6 6 6 6 5 5 5 5 5 6 6 5 5 5 5 4 3 3 3 3 2 2 2 2 2 2 2 2 3 3 4 5 5 6 5 5 4
6 6 6 6 6 6 5 6 6 5 5 5 5 5 6 7 8 7 5 5 4 4 3 3 3 3 3 3 4 2 3 1 2 2 2 2 2 2 3 5 5 5 5
6 6 6 7 7 6 9 11 8 5 4 5 5 5 5 6 8 9 9 9 7 5 5 5 4 5 4 3 3 3 3 3 3 2 2 2 2 2 2 2 5 6 5
6 6 6 6 7 8 12 11 11 6 4 4 4 5 5 5 6 4 6 8 8 10 10 6 6 6 5 5 5 5 4 4 4 3 2 2 2 3 2 3 6 6 6
6 6 6 6 7 8 12 12 11 5 4 4 5 5 5 5 5 5 4 4 5 5 7 6 6 6 5 5 6 6 5 3 1 1 3 3 2 2 2 2 6 7 6
6 6 6 6 6 8 12 12 10 4 4 4 5 5 5 5 8 8 5 4 4 4 5 6 6 6 7 7 5 3 3 3 3 3 2 2 2 1 1 2 3 5 5
6 7 7 6 6 7 11 12 10 4 4 4 4 5 7 7 8 8 4 4 5 4 3 3 3 4 4 5 7 6 5 5 2 3 3 3 2 1 1 2 1 2 3
Wind_Direction
25 21 12 10 4 6 10 7 4 6 10 10 6 6 354 346 339 342 334 347 355 5 185 178 159 152 160 166 158 148 149 156 157 154 152 149 141 141 143 140 140 139 135
27 21 13 8 3 357 360 5 354 353 352 357 359 351 343 342 338 337 337 342 350 356 112 183 174 163 165 165 163 156 151 146 154 155 155 153 151 151 149 149 151 148 144
19 22 18 3 354 352 358 7 7 5 1 358 352 342 340 337 333 336 336 341 336 342 31 190 191 172 174 171 168 165 161 156 151 162 161 156 155 155 157 157 155 155 157
6 21 19 345 346 353 3 2 15 6 354 345 336 328 327 325 327 325 333 351 346 345 2 55 123 181 182 177 172 162 166 163 162 158 163 166 164 167 170 168 165 162 163
351 5 350 341 346 354 358 355 7 5 336 333 322 322 317 309 306 316 332 343 359 349 353 11 5 202 183 181 175 170 171 172 167 169 169 176 177 178 178 179 176 171 167
339 342 338 341 350 353 353 358 348 349 306 317 318 322 311 298 293 282 285 341 16 17 27 21 7 332 181 176 186 191 190 189 189 187 187 184 187 187 187 188 186 182 178
335 327 330 323 323 308 310 341 351 337 342 353 354 333 321 309 300 303 297 31 27 25 45 33 23 22 352 157 157 203 213 210 202 198 197 196 197 199 198 198 193 186 181
340 331 318 307 290 289 305 315 346 333 315 355 15 319 324 323 326 319 289 252 302 349 22 11 39 48 16 14 311 280 259 241 217 204 200 205 207 208 205 203 196 190 184
343 329 322 312 288 260 256 264 243 238 280 270 230 185 216 265 314 297 288 281 277 270 287 331 346 7 355 10 329 292 297 276 228 216 213 216 217 217 214 203 199 198 194
337 330 326 319 309 285 259 250 242 244 226 256 272 260 238 219 244 296 295 291 278 259 252 269 286 249 261 239 278 301 293 273 245 231 224 230 227 224 219 207 200 196 191
331 328 323 315 302 293 278 259 247 243 234 238 243 263 270 266 228 236 266 285 297 274 259 245 250 242 229 214 222 263 275 267 254 244 233 235 238 236 230 212 198 193 192
325 327 321 315 307 294 276 268 252 245 244 245 243 244 241 239 236 231 249 265 277 283 279 255 236 233 210 207 234 258 261 261 255 252 246 241 246 247 242 227 207 198 194
321 321 321 313 306 295 282 267 254 247 241 243 238 239 241 251 245 247 248 260 275 284 272 264 237 231 213 205 219 240 248 266 265 255 255 251 247 248 242 239 222 206 195
305 310 314 307 299 296 291 279 264 252 243 241 246 241 241 246 246 242 236 238 266 271 256 249 251 226 213 206 224 222 229 248 261 258 256 261 256 251 252 246 237 218 201
306 313 311 309 303 297 290 280 270 263 253 247 248 245 242 242 246 248 238 224 222 246 253 229 227 222 217 212 225 210 219 238 246 253 252 256 263 252 239 234 239 231 206
305 308 309 308 306 300 295 284 277 270 260 256 253 247 244 243 243 249 244 239 232 234 251 235 236 254 232 237 234 221 225 237 231 234 238 242 248 234 221 218 214 238 220
306 306 308 308 307 303 298 288 283 278 270 267 262 254 252 243 236 243 245 241 239 231 248 265 259 261 226 216 220 217 229 218 216 223 228 227 227 228 209 207 209 223 229
302 304 304 305 304 304 299 288 284 285 278 273 264 259 260 254 245 241 240 240 239 235 234 252 258 248 236 219 201 208 231 232 219 229 227 224 224 224 211 200 199 207 221
302 304 305 304 302 299 298 292 284 279 275 274 269 258 258 253 251 252 248 241 238 243 236 231 243 250 244 213 190 230 219 221 242 235 230 222 219 219 212 206 203 209 222
301 302 302 301 300 298 295 294 290 282 277 276 274 267 258 247 242 239 244 244 237 232 232 224 234 239 232 205 184 202 220 217 235 247 236 229 221 220 218 214 211 214 221
303 301 302 301 301 296 291 293 286 284 279 279 277 278 268 256 254 245 240 235 232 227 222 224 225 234 225 202 201 197 213 204 240 222 213 231 217 217 220 219 216 217 222
303 302 301 300 298 297 300 301 299 283 280 279 285 288 283 265 264 261 254 245 236 232 227 223 230 225 227 219 201 195 197 199 233 205 188 239 205 223 233 221 219 220 222
303 303 299 296 294 295 301 301 300 295 283 281 283 287 292 287 279 268 262 254 247 249 242 235 231 230 222 215 203 207 213 217 226 197 181 240 219 233 237 229 227 227 232
302 299 298 295 293 298 305 302 302 291 282 280 278 277 279 292 287 277 267 259 252 253 248 242 234 235 237 217 213 215 213 218 228 211 191 219 224 233 249 236 230 229 235
302 298 298 297 295 299 305 306 306 293 286 282 279 277 279 276 286 286 274 265 265 266 262 254 255 246 240 237 223 194 187 195 224 221 198 198 212 237 254 250 242 233 234
300 304 304 301 294 294 303 306 307 296 291 291 286 276 274 279 283 286 275 261 264 269 266 265 261 252 239 228 222 209 195 198 206 219 195 179 191 176 254 260 242 241 235